Location: *
(35.8942°N, 23.3025°E)
Time: 23:44:16
(UTC+00:00)

H-2A ROCKET BODY - Pass Details

Date: 21 September 2021
Orbit: 237 x 14717 km, 28.6° (Epoch: 22 October)

Event Time Altitude Azimuth Distance (km) Brightness Sun altitude
Exits shadow 03:42:34 - 248° (WSW) 5,078 5.6 -7.2°
Reaches altitude 10° 03:45:10 10° 244° (WSW) 3,952 5.1 -6.6°
Maximum altitude 03:52:03 29° 187° (S) 1,222 3.0 -5.3°
Drops below altitude 10° 03:54:45 10° 122° (ESE) 1,485 4.5 -4.7°
Sets 03:56:12 0° 108° (ESE) 2,058 5.8 -4.4°
